Wind_Speed
7 5 3 3 5 6 8 17 27 27 29 25 21 29 26 34 32 33 36 37 38 37 34 31 28 28 23 19 18 17 17 17 19 20 18 17 12 11 13 14 15 16 19
9 9 5 3 4 8 12 11 27 28 25 26 22 28 24 39 39 37 36 39 37 38 37 36 32 28 27 23 22 22 17 18 20 20 18 17 15 14 15 16 18 20 20
10 9 9 3 1 7 12 7 15 27 22 20 29 31 32 41 42 42 40 40 41 44 44 39 38 35 31 26 23 23 19 20 21 21 21 20 18 16 17 18 16 21 21
9 8 9 6 2 3 8 9 5 16 29 16 20 27 29 26 35 37 47 47 49 50 51 48 50 39 31 32 27 24 21 23 23 24 23 22 20 21 21 21 21 17 21
10 7 9 10 6 2 4 7 9 8 14 19 24 25 29 26 35 33 48 38 49 50 52 52 33 37 36 28 33 28 24 26 27 29 29 28 26 30 24 25 23 22 23
13 11 9 11 9 6 5 5 5 8 7 9 13 17 28 28 32 29 29 42 39 32 44 48 29 34 35 31 31 30 30 29 31 32 33 33 32 32 26 26 27 26 28
17 15 8 4 7 7 6 6 6 6 6 5 6 8 16 27 32 38 26 34 38 34 34 31 28 28 34 36 35 35 34 33 35 36 35 38 40 33 29 25 32 30 28
16 19 12 9 7 6 7 8 8 8 8 7 6 5 8 10 17 25 25 34 28 31 24 35 34 33 38 40 42 39 37 39 41 40 40 40 35 27 25 32 30 31 30
14 20 17 14 11 7 4 7 9 10 10 10 9 8 8 11 13 15 17 18 21 21 24 26 29 31 33 35 37 40 42 45 43 44 45 33 27 26 34 34 29 33 35
16 17 20 19 17 15 13 12 10 13 14 15 15 13 13 13 14 16 17 17 19 21 22 25 29 31 34 37 40 42 42 44 47 49 45 38 34 33 37 31 31 34 34
15 14 18 18 18 19 20 20 19 16 17 21 20 20 18 17 18 18 19 20 22 24 26 29 32 35 37 39 42 43 44 43 39 34 36 35 34 33 35 35 37 35 35
11 13 12 13 16 14 17 21 20 20 18 19 21 21 20 23 23 25 24 27 28 28 31 33 35 36 38 38 41 46 44 43 43 38 37 35 35 35 37 39 37 38 38
10 11 14 15 18 14 12 13 15 19 23 25 25 24 22 25 27 27 27 26 33 33 37 37 39 40 42 46 46 48 52 53 45 44 46 41 33 37 40 38 39 41 41
12 14 15 16 17 16 13 13 10 12 21 23 28 28 26 26 27 28 29 28 37 34 33 41 41 43 47 47 47 45 49 43 46 47 51 33 38 38 42 40 43 44 43
24 23 22 19 20 19 18 16 17 17 17 18 21 23 23 22 23 26 27 27 30 38 36 37 47 39 44 42 41 38 38 35 43 48 42 37 43 37 37 43 45 37 50
21 20 25 25 21 22 20 17 19 22 22 19 16 15 17 16 16 18 22 27 29 32 37 44 45 41 35 34 41 36 34 34 34 36 34 42 34 41 44 42 44 48 44
29 29 26 28 30 26 28 28 25 23 25 25 21 21 23 21 21 22 23 26 30 31 33 33 38 45 41 32 32 39 38 34 40 42 41 40 41 43 43 47 49 45 50
24 27 23 28 30 33 33 29 29 24 25 30 28 25 24 23 25 27 25 26 30 32 32 32 34 35 36 34 35 36 39 39 41 43 44 43 40 46 48 41 50 54 55
23 25 21 21 20 26 28 28 29 27 26 28 32 32 29 29 28 31 34 32 32 33 34 35 36 36 36 36 36 37 40 40 40 40 41 44 45 42 45 52 55 52 46
28 29 31 22 22 22 22 29 32 33 30 29 31 34 34 31 37 37 37 37 36 37 37 36 36 36 37 38 39 39 41 40 38 44 45 47 38 48 50 53 47 46 49
38 38 34 37 31 29 26 28 31 34 33 36 35 36 37 36 36 37 39 39 37 37 37 38 39 39 40 41 43 43 39 39 39 43 41 45 46 49 47 45 47 50 52
18 23 28 33 34 34 37 34 36 36 40 39 37 35 35 35 35 38 41 40 40 40 40 40 39 37 39 35 36 39 41 40 43 42 44 46 46 45 46 48 51 51 53
16 16 17 22 27 32 35 33 35 36 37 32 30 31 30 33 40 40 38 39 39 39 37 35 31 30 36 35 39 41 39 42 41 43 45 44 46 46 48 50 53 52 48
17 15 16 20 18 19 22 22 21 20 21 23 26 28 30 38 42 37 36 35 33 27 26 28 28 34 36 37 37 38 39 40 43 44 44 46 48 51 53 53 51 50 51
11 14 17 15 21 18 17 20 22 24 26 27 30 32 39 38 35 33 31 26 25 29 33 35 35 35 33 37 39 41 41 42 43 44 47 47 48 48 47 45 45 47 45
18 19 21 21 30 27 24 21 19 21 25 25 25 29 27 26 25 24 22 22 28 31 33 34 33 34 37 38 38 38 39 39 40 41 40 40 41 41 43 45 44 43 44
Wind_Direction
286 269 291 337 355 344 304 258 229 212 202 213 192 205 197 198 196 195 185 181 185 193 200 199 206 212 210 211 225 239 245 244 238 234 232 236 244 254 266 274 275 294 293
290 256 250 280 345 7 344 273 222 215 207 203 203 207 207 199 190 189 190 191 191 201 205 207 206 213 209 214 231 234 235 244 244 241 239 245 249 257 268 275 275 291 290
275 266 246 242 354 23 13 22 156 205 201 213 214 213 217 203 201 193 201 200 198 208 210 207 207 211 210 222 229 230 239 243 241 239 241 246 255 259 270 272 286 280 298
265 265 236 230 220 58 54 59 171 181 197 191 210 214 210 231 208 208 207 198 204 210 214 210 223 221 210 219 232 237 242 248 246 246 244 252 260 264 276 280 269 282 293
249 250 232 224 214 165 92 86 110 159 207 208 201 211 229 217 216 216 215 228 209 214 224 231 242 210 212 221 232 238 243 249 250 253 250 255 256 263 267 273 287 283 278
229 233 241 235 214 192 163 141 116 113 127 188 197 224 210 237 224 210 222 218 216 233 233 236 250 220 222 229 233 242 245 253 256 255 256 257 262 272 266 273 277 283 283
218 226 222 219 228 204 191 172 154 140 131 124 130 169 185 207 226 224 227 221 232 234 227 237 235 227 221 228 235 240 247 256 256 259 258 264 271 263 266 271 281 263 287
223 222 210 201 199 198 202 196 184 177 168 165 150 141 145 159 184 205 210 216 225 228 230 216 223 220 221 226 236 241 248 255 255 259 262 262 269 257 266 275 278 277 281
216 223 217 205 199 197 202 208 209 204 197 188 188 186 183 183 181 187 195 201 217 221 224 224 230 229 229 233 237 244 250 253 258 259 260 273 257 267 266 269 276 270 283
210 217 224 224 219 223 226 233 231 221 210 209 203 203 207 206 208 210 209 208 210 216 220 225 230 232 233 236 239 245 253 262 262 258 256 255 265 266 270 271 277 277 273
211 212 222 226 229 235 241 242 238 240 230 220 215 218 221 229 231 230 229 229 227 227 226 227 231 235 239 243 248 253 258 259 269 269 258 260 265 269 274 273 274 280 283
198 214 211 227 226 229 244 245 243 242 241 231 222 217 231 237 239 243 244 243 239 236 239 239 240 242 245 248 254 258 258 260 260 259 257 262 264 269 276 280 272 278 284
212 217 246 265 237 232 244 241 248 243 234 234 235 230 234 228 239 252 253 249 253 251 248 254 250 249 250 247 265 261 250 250 256 259 260 255 260 271 275 278 280 279 283
259 266 269 261 234 238 244 247 254 255 237 237 237 239 237 239 243 247 250 252 253 249 255 255 254 254 254 259 263 271 271 269 250 259 256 251 264 268 275 264 275 286 277
269 271 260 262 237 240 251 251 253 258 255 244 241 239 240 242 248 254 256 258 257 243 251 253 250 249 262 262 263 262 264 266 254 261 258 262 268 266 266 272 281 273 284
258 274 270 260 242 248 241 255 256 260 248 246 241 223 226 238 259 263 268 262 257 254 248 247 244 250 260 265 252 252 263 264 265 274 271 268 260 258 276 280 282 277 272
270 266 265 253 251 253 254 263 250 256 249 246 238 240 243 255 260 262 274 265 264 262 259 253 249 254 256 252 264 255 258 257 262 268 267 268 261 268 274 284 268 269 272
260 264 257 245 251 254 253 257 240 243 247 241 245 243 248 255 259 266 276 273 265 262 262 260 255 253 249 253 253 256 259 258 261 262 264 269 265 265 277 261 270 277 277
246 246 247 245 255 253 241 241 244 243 251 246 242 248 251 252 264 268 279 277 269 263 260 258 258 257 256 255 255 258 260 263 266 269 251 262 272 265 263 269 274 277 279
242 245 246 252 253 252 249 243 243 244 248 250 239 246 253 254 261 264 268 273 270 269 267 265 263 262 262 260 260 262 263 265 262 260 265 261 256 269 272 274 277 276 274
250 248 247 243 254 262 257 256 251 254 247 256 247 245 251 255 256 264 269 271 271 270 269 269 267 266 264 262 261 263 266 267 258 251 262 272 271 271 275 276 271 272 274
273 263 254 253 253 261 250 258 256 252 253 245 245 247 251 255 257 263 266 270 273 273 273 271 270 267 268 269 267 260 254 251 253 265 266 269 272 274 272 270 271 270 270
304 277 257 269 254 252 252 251 251 243 238 235 236 241 252 261 269 267 268 270 272 270 269 272 274 272 267 256 254 250 256 264 265 268 270 271 272 270 269 269 268 269 273
307 297 271 256 221 221 220 220 223 232 241 247 252 256 268 269 265 267 270 273 273 273 265 257 242 247 251 257 275 276 274 272 271 271 271 272 272 271 270 269 274 282 289
299 299 278 265 233 234 246 246 245 252 253 252 255 258 259 259 266 269 268 271 268 262 259 256 258 268 276 275 273 272 272 273 274 273 271 270 272 280 287 290 288 286 287
313 303 291 273 263 251 248 257 259 255 256 258 260 258 262 269 272 274 273 265 258 261 265 268 269 269 269 269 270 271 273 276 278 281 282 284 286 287 285 283 282 283 285
Height
3083 3082 3081 3079 3077 3076 3074 3072 3072 3076 3081 3085 3089 3092 3096 3102 3107 3112 3118 3124 3128 3135 3140 3143 3148 3153 3156 3159 3162 3164 3166 3167 3169 3170 3170 3171 3169 3172 3173 3172 3172 3172 3170
3080 3080 3079 3078 3076 3074 3071 3065 3067 3070 3077 3082 3086 3091 3096 3099 3104 3110 3116 3121 3127 3132 3136 3140 3144 3149 3152 3156 3159 3161 3163 3163 3165 3167 3166 3167 3168 3169 3169 3168 3169 3167 3165
3077 3077 3076 3076 3075 3073 3069 3064 3066 3070 3076 3080 3083 3088 3092 3097 3099 3105 3112 3116 3122 3127 3131 3136 3139 3143 3148 3152 3154 3156 3158 3159 3160 3161 3161 3162 3163 3165 3165 3165 3162 3161 3161
3073 3074 3074 3074 3074 3073 3072 3068 3069 3072 3074 3076 3080 3083 3089 3093 3097 3101 3106 3110 3116 3121 3125 3130 3133 3137 3140 3144 3149 3151 3153 3154 3156 3157 3158 3157 3159 3159 3159 3158 3155 3155 3155
3070 3071 3071 3071 3070 3071 3072 3072 3071 3073 3073 3074 3078 3080 3083 3089 3092 3097 3102 3105 3110 3116 3119 3123 3127 3130 3134 3139 3143 3145 3147 3149 3150 3151 3153 3151 3151 3149 3151 3150 3149 3149 3149
3067 3068 3069 3069 3069 3070 3071 3072 3073 3073 3074 3076 3076 3076 3080 3085 3088 3093 3097 3101 3106 3111 3113 3118 3121 3125 3129 3135 3138 3140 3141 3143 3144 3145 3145 3145 3144 3142 3144 3142 3143 3142 3141
3063 3065 3066 3068 3068 3069 3071 3072 3072 3074 3075 3075 3075 3077 3077 3082 3085 3090 3095 3100 3103 3105 3108 3112 3116 3120 3124 3129 3132 3134 3135 3135 3136 3136 3137 3137 3134 3134 3133 3134 3134 3134 3133
3059 3061 3063 3066 3067 3068 3069 3070 3072 3074 3075 3075 3077 3078 3077 3079 3082 3087 3090 3094 3098 3101 3105 3108 3113 3114 3118 3121 3125 3126 3128 3128 3128 3128 3128 3128 3124 3123 3127 3127 3126 3125 3125
3055 3058 3060 3063 3065 3066 3068 3069 3070 3071 3073 3074 3076 3077 3079 3081 3083 3085 3087 3089 3094 3097 3099 3102 3107 3110 3113 3116 3118 3120 3120 3119 3120 3121 3120 3118 3116 3118 3120 3119 3119 3118 3115
3051 3054 3057 3059 3062 3064 3066 3067 3068 3070 3071 3072 3075 3077 3079 3081 3083 3085 3087 3089 3091 3093 3096 3099 3103 3106 3108 3109 3110 3111 3111 3110 3110 3110 3109 3110 3111 3111 3111 3110 3110 3110 3107
3049 3051 3054 3056 3058 3059 3061 3063 3064 3066 3068 3069 3072 3074 3076 3078 3080 3081 3083 3085 3088 3090 3092 3094 3096 3098 3100 3102 3102 3102 3102 3101 3100 3099 3101 3102 3102 3102 3102 3102 3101 3100 3099
3047 3049 3051 3053 3054 3056 3056 3057 3058 3060 3063 3065 3066 3068 3070 3072 3075 3078 3081 3083 3085 3086 3087 3089 3089 3090 3091 3091 3092 3093 3094 3092 3092 3093 3092 3092 3092 3092 3092 3092 3091 3090 3089
3045 3047 3049 3050 3051 3052 3053 3053 3053 3055 3055 3058 3060 3062 3064 3065 3068 3072 3074 3074 3077 3078 3078 3080 3080 3081 3081 3079 3081 3077 3078 3079 3080 3080 3079 3079 3079 3082 3082 3081 3080 3079 3077
3041 3042 3044 3045 3046 3047 3049 3049 3050 3050 3050 3051 3052 3055 3057 3059 3061 3063 3063 3065 3066 3066 3068 3070 3070 3071 3071 3070 3070 3068 3065 3064 3069 3068 3068 3069 3071 3071 3070 3070 3069 3068 3066
3034 3036 3038 3039 3040 3042 3043 3043 3045 3045 3045 3046 3046 3047 3051 3052 3053 3054 3055 3056 3056 3057 3057 3058 3060 3061 3060 3060 3061 3060 3057 3056 3058 3058 3056 3058 3061 3060 3061 3059 3058 3056 3055
3029 3030 3031 3031 3033 3035 3036 3037 3039 3039 3040 3040 3041 3043 3044 3046 3047 3047 3047 3047 3046 3046 3046 3046 3047 3049 3048 3050 3050 3048 3047 3047 3048 3049 3048 3050 3050 3049 3049 3048 3047 3045 3042
3022 3023 3024 3025 3026 3027 3028 3030 3031 3032 3033 3034 3035 3036 3038 3039 3039 3039 3038 3037 3036 3036 3036 3036 3036 3037 3038 3038 3038 3037 3037 3038 3038 3039 3039 3038 3039 3039 3037 3036 3033 3033 3030
3015 3016 3016 3017 3018 3018 3019 3021 3021 3023 3024 3026 3028 3028 3029 3030 3030 3029 3028 3028 3026 3025 3025 3025 3025 3026 3026 3027 3028 3029 3029 3029 3029 3028 3027 3028 3028 3026 3026 3022 3023 3019 3017
3005 3006 3006 3007 3008 3009 3010 3012 3013 3014 3015 3016 3018 3020 3021 3021 3021 3020 3019 3018 3017 3016 3015 3014 3014 3014 3015 3016 3016 3018 3017 3017 3017 3016 3017 3016 3015 3014 3013 3012 3009 3006 3004
2994 2996 2999 2998 2999 3001 3002 3002 3004 3005 3006 3007 3008 3009 3010 3010 3011 3010 3009 3008 3007 3006 3005 3005 3004 3005 3005 3005 3006 3006 3006 3005 3006 3006 3004 3001 2998 3001 3000 2997 2995 2994 2991
2984 2986 2988 2991 2990 2992 2992 2993 2994 2994 2996 2997 2997 2998 2999 3000 3000 3000 3000 2998 2997 2997 2996 2996 2995 2995 2995 2994 2994 2994 2994 2994 2994 2993 2989 2989 2988 2987 2986 2985 2984 2982 2978
2976 2976 2977 2979 2982 2981 2983 2982 2983 2984 2985 2986 2986 2986 2987 2988 2989 2989 2989 2988 2987 2986 2985 2984 2984 2984 2983 2984 2983 2983 2982 2980 2978 2979 2979 2978 2976 2975 2974 2973 2971 2967 2963
2968 2968 2968 2970 2970 2971 2971 2971 2971 2972 2972 2974 2975 2975 2977 2978 2980 2979 2978 2977 2975 2974 2973 2973 2973 2973 2974 2973 2972 2971 2969 2969 2969 2967 2967 2966 2964 2963 2961 2959 2955 2951 2948
2963 2963 2962 2963 2963 2962 2962 2963 2963 2965 2965 2966 2967 2966 2966 2968 2967 2966 2965 2965 2964 2964 2964 2964 2962 2964 2962 2959 2957 2958 2958 2958 2957 2956 2954 2952 2950 2949 2946 2943 2941 2940 2939
2957 2957 2957 2956 2958 2958 2957 2957 2956 2957 2957 2956 2956 2955 2956 2957 2956 2956 2954 2953 2955 2956 2956 2954 2953 2952 2949 2951 2951 2950 2949 2948 2946 2944 2941 2939 2937 2936 2935 2932 2930 2928 2926
2950 2950 2951 2948 2949 2950 2950 2950 2949 2947 2948 2947 2945 2946 2945 2946 2945 2946 2945 2945 2946 2945 2945 2944 2943 2943 2942 2941 2939 2938 2937 2936 2934 2933 2931 2928 2926 2925 2922 2919 2917 2914 2912